Location: Poughquag
(41.6090°N, 73.6820°W)
Time: 03:41:31
(UTC-04:00)

Transit 4A - Pass Details

Date: 30 May 2020
Orbit: 866 x 978 km, 66.8° (Epoch: 06 July)

Event Time Altitude Azimuth Distance (km) Brightness Sun altitude
Rises 04:56:08 0° 275° (W) 3,458 10.4 -5.1°
Reaches altitude 10° 05:00:26 10° 305° (NW) 2,540 10.0 -4.5°
Maximum altitude 05:02:40 12° 328° (NNW) 2,400 10.1 -4.1°
Drops below altitude 10° 05:04:56 10° 351° (N) 2,566 10.6 -3.8°
Sets 05:09:22 0° 21° (NNE) 3,537 11.9 -3.1°
